When you browse on this site, cookies collect data to enhance your experience and personalize the content and advertising you see.
Visit our Privacy Policy to learn more. By continuing to use the site, you agree to this use of cookies and data.
  • In Czech Republic
  • List of Countries
  • For 7 days
  • Water Temperature
  • Satellite Maps
  • Weather Map
  • Weather Widgets
  • user-avatar
    Login

    Hourly Weather Bafatá

    Today, 14 December, Friday

    Time Temperature Precipitation Wind Pressure Humidity
    00:00 +26°C° 0 mm 1 mps 758 mmHg 37%
    01:00 +26°C° 0 mm 1 mps 758 mmHg 39%
    02:00 +25°C° 0 mm 1 mps 758 mmHg 42%
    03:00 +25°C° 0 mm 1 mps 758 mmHg 44%
    04:00 +22°C° 0 mm 0 mps 758 mmHg 46%
    05:00 +22°C° 0 mm 0 mps 758 mmHg 49%
    06:00 +26°C° 0 mm 1 mps 758 mmHg 44%
    07:00 +27°C° 0 mm 1 mps 759 mmHg 39%
    08:00 +29°C° 0 mm 1 mps 759 mmHg 33%
    09:00 +32°C° 0 mm 1 mps 759 mmHg 27%
    10:00 +36°C° 0 mm 2 mps 759 mmHg 22%
    11:00 +39°C° 0 mm 2 mps 758 mmHg 16%
    12:00 +39°C° 0 mm 2 mps 758 mmHg 16%
    13:00 +39°C° 0 mm 3 mps 757 mmHg 15%
    14:00 +38°C° 0 mm 3 mps 757 mmHg 15%
    15:00 +37°C° 0 mm 2 mps 757 mmHg 16%
    16:00 +36°C° 0 mm 2 mps 757 mmHg 17%
    17:00 +35°C° 0 mm 2 mps 757 mmHg 18%
    18:00 +34°C° 0 mm 2 mps 757 mmHg 17%
    19:00 +32°C° 0 mm 1 mps 758 mmHg 17%
    20:00 +31°C° 0 mm 1 mps 758 mmHg 17%
    21:00 +31°C° 0 mm 1 mps 759 mmHg 18%
    22:00 +31°C° 0 mm 1 mps 759 mmHg 18%
    23:00 +30°C° 0 mm 1 mps 759 mmHg 19%

    Tomorrow, 15 December, Saturday

    Time Temperature Precipitation Wind Pressure Humidity
    00:00 +30°C° 0 mm 1 mps 759 mmHg 20%
    01:00 +29°C° 0 mm 1 mps 759 mmHg 20%
    02:00 +29°C° 0 mm 1 mps 759 mmHg 21%
    03:00 +29°C° 0 mm 1 mps 759 mmHg 20%
    04:00 +28°C° 0 mm 2 mps 759 mmHg 19%
    05:00 +28°C° 0 mm 2 mps 759 mmHg 18%
    06:00 +29°C° 0 mm 2 mps 759 mmHg 16%
    07:00 +30°C° 0 mm 3 mps 760 mmHg 15%
    08:00 +31°C° 0 mm 3 mps 760 mmHg 13%
    09:00 +34°C° 0 mm 4 mps 760 mmHg 12%
    10:00 +37°C° 0 mm 4 mps 760 mmHg 10%
    11:00 +40°C° 0 mm 5 mps 760 mmHg 9%
    12:00 +41°C° 0 mm 5 mps 760 mmHg 9%
    13:00 +41°C° 0 mm 5 mps 759 mmHg 9%
    14:00 +42°C° 0 mm 5 mps 758 mmHg 9%
    15:00 +41°C° 0 mm 4 mps 758 mmHg 10%
    16:00 +40°C° 0 mm 4 mps 758 mmHg 11%
    17:00 +38°C° 0 mm 4 mps 758 mmHg 12%
    18:00 +36°C° 0 mm 4 mps 759 mmHg 13%
    19:00 +34°C° 0 mm 4 mps 760 mmHg 14%
    20:00 +32°C° 0 mm 5 mps 760 mmHg 16%
    21:00 +32°C° 0 mm 4 mps 760 mmHg 16%
    22:00 +30°C° 0 mm 4 mps 760 mmHg 16%
    23:00 +30°C° 0 mm 4 mps 760 mmHg 17%

    Day after tomorrow, 16 December, Sunday

    Time Temperature Precipitation Wind Pressure Humidity
    00:00 +30°C° 0 mm 3 mps 760 mmHg 18%
    01:00 +29°C° 0 mm 3 mps 759 mmHg 19%
    02:00 +29°C° 0 mm 3 mps 759 mmHg 20%
    03:00 +28°C° 0 mm 3 mps 759 mmHg 21%
    04:00 +28°C° 0 mm 2 mps 759 mmHg 22%
    05:00 +28°C° 0 mm 2 mps 759 mmHg 23%
    06:00 +29°C° 0 mm 3 mps 759 mmHg 21%
    07:00 +30°C° 0 mm 3 mps 759 mmHg 19%
    08:00 +32°C° 0 mm 4 mps 760 mmHg 17%
    09:00 +34°C° 0 mm 4 mps 759 mmHg 14%
    10:00 +36°C° 0 mm 4 mps 759 mmHg 12%
    11:00 +40°C° 0 mm 5 mps 759 mmHg 9%
    12:00 +40°C° 0 mm 4 mps 758 mmHg 9%
    13:00 +41°C° 0 mm 4 mps 757 mmHg 9%
    14:00 +42°C° 0 mm 4 mps 756 mmHg 8%
    15:00 +40°C° 0 mm 3 mps 756 mmHg 9%
    16:00 +39°C° 0 mm 3 mps 756 mmHg 10%
    17:00 +38°C° 0 mm 2 mps 756 mmHg 11%
    18:00 +36°C° 0 mm 2 mps 757 mmHg 12%
    19:00 +32°C° 0 mm 2 mps 758 mmHg 12%
    20:00 +30°C° 0 mm 2 mps 758 mmHg 13%
    21:00 +29°C° 0 mm 2 mps 758 mmHg 13%
    22:00 +28°C° 0 mm 2 mps 759 mmHg 13%
    23:00 +28°C° 0 mm 2 mps 759 mmHg 12%

    17 December, Monday

    Time Temperature Precipitation Wind Pressure Humidity
    00:00 +27°C° 0 mm 2 mps 758 mmHg 13%
    01:00 +26°C° 0 mm 2 mps 758 mmHg 13%
    02:00 +25°C° 0 mm 2 mps 757 mmHg 13%
    03:00 +25°C° 0 mm 2 mps 757 mmHg 13%
    04:00 +24°C° 0 mm 2 mps 757 mmHg 13%
    05:00 +23°C° 0 mm 2 mps 757 mmHg 13%
    06:00 +25°C° 0 mm 2 mps 758 mmHg 12%
    07:00 +27°C° 0 mm 3 mps 758 mmHg 11%
    08:00 +28°C° 0 mm 3 mps 759 mmHg 10%
    09:00 +33°C° 0 mm 3 mps 758 mmHg 9%
    10:00 +36°C° 0 mm 3 mps 758 mmHg 7%
    11:00 +39°C° 0 mm 3 mps 758 mmHg 6%
    12:00 +40°C° 0 mm 3 mps 757 mmHg 6%
    13:00 +41°C° 0 mm 2 mps 756 mmHg 6%
    14:00 +42°C° 0 mm 2 mps 755 mmHg 6%
    15:00 +41°C° 0 mm 1 mps 755 mmHg 7%
    16:00 +40°C° 0 mm 1 mps 755 mmHg 9%
    17:00 +37°C° 0 mm 1 mps 755 mmHg 10%
    18:00 +34°C° 0 mm 1 mps 756 mmHg 15%
    19:00 +32°C° 0 mm 1 mps 757 mmHg 20%
    20:00 +29°C° 0 mm 2 mps 758 mmHg 25%
    21:00 +28°C° 0 mm 1 mps 758 mmHg 35%
    22:00 +26°C° 0 mm 1 mps 758 mmHg 46%
    23:00 +25°C° 0 mm 1 mps 758 mmHg 57%

    18 December, Tuesday

    Time Temperature Precipitation Wind Pressure Humidity
    00:00 +24°C° 0 mm 1 mps 758 mmHg 64%
    01:00 +24°C° 0 mm 1 mps 758 mmHg 71%
    02:00 +21°C° 0 mm 0 mps 758 mmHg 78%
    03:00 +21°C° 0 mm 0 mps 758 mmHg 79%
    04:00 +21°C° 0 mm 0 mps 758 mmHg 79%
    05:00 +20°C° 0 mm 0 mps 758 mmHg 79%
    06:00 +22°C° 0 mm 0 mps 758 mmHg 70%
    07:00 +26°C° 0 mm 1 mps 759 mmHg 60%
    08:00 +28°C° 0 mm 1 mps 759 mmHg 50%
    09:00 +31°C° 0 mm 1 mps 759 mmHg 38%
    10:00 +35°C° 0 mm 2 mps 759 mmHg 26%
    11:00 +38°C° 0 mm 2 mps 758 mmHg 14%
    12:00 +39°C° 0 mm 2 mps 757 mmHg 12%
    13:00 +40°C° 0 mm 2 mps 756 mmHg 11%
    14:00 +42°C° 0 mm 2 mps 755 mmHg 9%
    15:00 +40°C° 0 mm 1 mps 756 mmHg 10%
    16:00 +39°C° 0 mm 1 mps 756 mmHg 12%
    17:00 +36°C° 0 mm 1 mps 756 mmHg 13%
    18:00 +34°C° 0 mm 1 mps 756 mmHg 19%
    19:00 +31°C° 0 mm 1 mps 757 mmHg 25%
    20:00 +28°C° 0 mm 1 mps 758 mmHg 30%
    21:00 +27°C° 0 mm 1 mps 758 mmHg 41%
    22:00 +26°C° 0 mm 1 mps 758 mmHg 52%
    23:00 +25°C° 0 mm 1 mps 758 mmHg 62%

    19 December, Wednesday

    Time Temperature Precipitation Wind Pressure Humidity
    00:00 +24°C° 0 mm 1 mps 758 mmHg 68%
    01:00 +24°C° 0 mm 1 mps 758 mmHg 74%
    02:00 +21°C° 0 mm 0 mps 757 mmHg 80%
    03:00 +21°C° 0 mm 0 mps 758 mmHg 81%
    04:00 +20°C° 0 mm 0 mps 758 mmHg 82%
    05:00 +20°C° 0 mm 0 mps 758 mmHg 84%
    06:00 +22°C° 0 mm 0 mps 758 mmHg 76%
    07:00 +24°C° 0 mm 0 mps 759 mmHg 68%
    08:00 +26°C° 0 mm 0 mps 759 mmHg 60%
    09:00 +31°C° 0 mm 1 mps 759 mmHg 47%
    10:00 +34°C° 0 mm 1 mps 758 mmHg 33%
    11:00 +38°C° 0 mm 2 mps 758 mmHg 20%
    12:00 +39°C° 0 mm 2 mps 757 mmHg 17%
    13:00 +40°C° 0 mm 1 mps 756 mmHg 14%
    14:00 +41°C° 0 mm 1 mps 755 mmHg 12%
    15:00 +40°C° 0 mm 1 mps 755 mmHg 13%
    16:00 +39°C° 0 mm 1 mps 755 mmHg 14%
    17:00 +37°C° 0 mm 1 mps 755 mmHg 15%
    18:00 +34°C° 0 mm 1 mps 756 mmHg 19%
    19:00 +31°C° 0 mm 1 mps 756 mmHg 23%
    20:00 +28°C° 0 mm 1 mps 757 mmHg 27%
    21:00 +27°C° 0 mm 1 mps 757 mmHg 33%
    22:00 +26°C° 0 mm 1 mps 757 mmHg 38%
    23:00 +25°C° 0 mm 1 mps 757 mmHg 44%
    Show more